Main page
METAR-TAF:

METAR-TAF

Airports :

Hood Army Airfield

Fort Hood / Killeen, Texas, United States

latitude: 31-06N, longitude: 097-20W, elevation: 928 ft

Current weather observation

The report was made 59 minutes ago, at 16:55 UTC
Wind 13 mph from the East
Temperature 84°F
Humidity 74%
Pressure 30.14 in. Hg
Visibility: 10 miles
Broken clouds at a height of 1800 ft

METAR: KHLR 201655Z AUTO 08011KT 10SM BKN018 29/24 A3014 RMK AO2 CIG 018V024 BKN V SCT SLP197 T02930241

Time: 11:54 (17:54 UTC)


TAF: missing

Weather observations and forecasts of more than 4000 airports (METAR and TAF reports).

The available stations are represented by yellow and red dots on the map.

Hover mouse over dot to see the name of the station.

Then click to see weather observations and forecasts.

To change the map : click on the green buttons with a black cross to zoom in, on the green button with a dash to zoom out, or on the green arrows for adjacent maps.


METAR-TAF: